FW8060 Weather Reports


time (UTC)temp
C
wind
direction
speed
KPH
gust
KPH
rain 1hr
cm
rain 24hr
cm
rain mn
cm
humidity
%
barometer
mb
20260507181931 12 30 0.0 3.2 0.00 0.00 0.00 77 1015.8
20260507180932 12 30 0.0 4.8 0.00 0.00 0.00 77 1015.8
20260507180247 12 15 1.6 6.4 0.00 0.00 0.00 76 1015.8
20260507175936 12 30 1.6 4.8 0.00 0.00 0.00 77 1015.9
20260507174855 12 5 1.6 9.7 0.00 0.00 0.00 75 1015.9
20260507172929 12 340 3.2 6.4 0.00 0.00 0.00 75 1015.9
20260507171941 12 350 3.2 9.7 0.00 0.00 0.00 74 1015.9
20260507170927 12 337 3.2 9.7 0.00 0.00 0.00 75 1015.9
20260507165932 12 5 4.8 9.7 0.00 0.00 0.00 75 1015.9
20260507164938 13 336 4.8 9.7 0.00 0.00 0.00 75 1015.8
20260507163923 13 340 4.8 8.0 0.00 0.00 0.00 74 1015.9
20260507162927 13 331 3.2 8.0 0.00 0.00 0.00 74 1015.8
20260507162426 13 331 3.2 8.0 0.00 0.00 0.00 74 1015.9
20260507160931 13 338 1.6 8.0 0.00 0.00 0.00 73 1015.9
20260507155926 13 15 3.2 9.7 0.00 0.00 0.00 73 1015.9
20260507154928 13 343 3.2 9.7 0.00 0.00 0.00 72 1016.0
20260507153942 13 5 3.2 9.7 0.00 0.00 0.00 72 1016.0
20260507152915 13 355 3.2 9.7 0.00 0.00 0.00 71 1016.0
20260507151915 13 336 3.2 9.7 0.00 0.00 0.00 71 1015.9
20260507150918 13 333 4.8 9.7 0.00 0.00 0.00 70 1015.9
20260507145916 13 323 4.8 14.5 0.00 0.00 0.00 70 1015.9
20260507144912 13 332 3.2 8.0 0.00 0.00 0.00 70 1015.9
20260507143917 13 351 4.8 12.9 0.00 0.00 0.00 68 1015.9
20260507142915 13 328 3.2 8.0 0.00 0.00 0.00 68 1015.9
20260507141922 13 12 1.6 9.7 0.00 0.00 0.00 66 1015.8
20260507140918 14 323 3.2 9.7 0.00 0.00 0.00 66 1015.9
20260507135914 14 17 1.6 6.4 0.00 0.00 0.00 65 1016.0
20260507134915 14 338 0.0 3.2 0.00 0.00 0.00 64 1016.0
20260507133914 14 325 1.6 6.4 0.00 0.00 0.00 64 1016.0
20260507132915 14 321 1.6 6.4 0.00 0.00 0.00 64 1016.0
20260507131917 14 30 1.6 4.8 0.00 0.00 0.00 63 1015.9
20260507130910 14 12 1.6 4.8 0.00 0.00 0.00 61 1016.0
20260507125911 14 355 1.6 3.2 0.00 0.00 0.00 62 1016.0
20260507124919 14 5 0.0 3.2 0.00 0.00 0.00 61 1016.1
20260507124124 14 355 0.0 4.8 0.00 0.00 0.00 61 1015.9
20260507123930 14 75 0.0 3.2 0.00 0.00 0.00 61 1016.0
20260507121924 14 63 0.0 6.4 0.00 0.00 0.00 60 1015.8
20260507120909 15 330 1.6 6.4 0.00 0.00 0.00 61 1015.9
20260507115919 15 327 1.6 6.4 0.00 0.00 0.00 62 1015.9
20260507114917 15 84 1.6 3.2 0.00 0.00 0.00 61 1015.8
20260507113916 15 266 1.6 4.8 0.00 0.00 0.00 60 1015.7
20260507112913 15 254 3.2 8.0 0.00 0.00 0.00 61 1015.8
20260507112234 15 91 1.6 4.8 0.00 0.00 0.00 63 1015.9
20260507111933 15 343 1.6 9.7 0.00 0.00 0.00 62 1015.8
20260507105909 14 335 3.2 8.0 0.00 0.00 0.00 63 1016.0
20260507104915 14 326 1.6 8.0 0.00 0.00 0.00 63 1016.1
20260507103903 14 0 1.6 6.4 0.00 0.00 0.00 62 1016.1
20260507102903 14 293 3.2 8.0 0.00 0.00 0.00 62 1016.2
20260507102101 15 155 3.2 9.7 0.00 0.00 0.00 62 1016.2
20260507101923 15 258 3.2 11.3 0.00 0.00 0.00 62 1016.2
20260507095905 15 226 6.4 12.9 0.00 0.00 0.00 63 1016.1
20260507094911 15 242 1.6 9.7 0.00 0.00 0.00 63 1016.2
20260507093911 14 189 3.2 12.9 0.00 0.00 0.00 64 1016.1
20260507092909 15 223 4.8 11.3 0.00 0.00 0.00 65 1016.0
20260507092355 14 178 3.2 11.3 0.00 0.00 0.00 68 1015.9
20260507091952 15 160 3.2 12.9 0.00 0.00 0.00 64 1016.1
20260507085905 14 116 3.2 8.0 0.00 0.00 0.00 70 1015.9
20260507085831 11 125 0.0 3.2 0.00 0.00 0.00 82 1015.7
20260507084930 13 161 4.8 8.0 0.00 0.00 0.00 72 1015.6
20260507084131 13 131 3.2 9.7 0.00 0.00 0.00 76 1015.8
20260507083033 11 134 3.2 6.4 0.00 0.00 0.00 80 1015.7
20260507082029 11 121 1.6 6.4 0.00 0.00 0.00 81 1015.6
20260507080821 11 125 1.6 3.2 0.00 0.00 0.00 84 1015.7
20260507074907 11 125 0.0 4.8 0.00 0.00 0.00 86 1015.6
20260507074140 10 61 1.6 6.4 0.00 0.00 0.00 87 1015.4
20260507073926 11 61 0.0 4.8 0.00 0.00 0.00 87 1015.5
20260507071908 10 61 1.6 6.4 0.00 0.00 0.00 88 1015.4
20260507070859 10 61 1.6 3.2 0.00 0.00 0.00 89 1015.3
20260507065857 10 61 1.6 6.4 0.00 0.00 0.00 89 1015.2
20260507064855 10 61 1.6 6.4 0.00 0.00 0.00 88 1015.4
20260507063900 10 61 0.0 6.4 0.00 0.00 0.00 88 1015.4
20260507062907 9 61 1.6 4.8 0.00 0.00 0.00 89 1015.3
20260507061858 9 61 0.0 1.6 0.00 0.00 0.00 90 1015.3
20260507060857 9 61 0.0 1.6 0.00 0.00 0.00 90 1015.1
20260507055851 9 61 0.0 3.2 0.00 0.00 0.00 90 1015.0
20260507054855 9 61 0.0 3.2 0.00 0.00 0.00 90 1014.9
20260507053852 8 61 0.0 1.6 0.00 0.00 0.00 91 1014.8
20260507052851 8 61 0.0 3.2 0.00 0.00 0.00 92 1014.6
20260507051851 8 61 0.0 3.2 0.00 0.00 0.00 93 1014.5
20260507050848 8 61 0.0 1.6 0.00 0.00 0.00 94 1014.4
20260507045845 8 61 0.0 1.6 0.00 0.00 0.00 95 1014.3
20260507044849 8 61 0.0 3.2 0.00 0.00 0.00 95 1014.3
20260507043846 8 61 0.0 3.2 0.00 0.00 0.00 95 1014.3
20260507042846 8 61 0.0 3.2 0.00 0.00 0.00 95 1014.2
20260507041931 8 53 0.0 6.4 0.00 0.00 0.00 95 1014.1
20260507041852 8 61 1.6 4.8 0.00 0.00 0.00 95 1014.1
20260507035847 8 138 0.0 0.0 0.00 0.00 0.00 95 1013.9
20260507034844 8 138 0.0 0.0 0.00 0.00 0.00 95 1013.9
20260507033938 8 119 0.0 1.6 0.00 0.00 0.00 95 1013.8
20260507033852 8 138 0.0 1.6 0.00 0.00 0.00 95 1013.8
20260507031849 8 288 0.0 0.0 0.00 0.00 0.00 95 1013.7
20260507030843 8 288 0.0 0.0 0.00 0.00 0.00 95 1013.7
20260507025842 8 288 0.0 0.0 0.00 0.00 0.00 95 1013.6
20260507025646 8 288 0.0 3.2 0.00 0.00 0.00 95 1013.6
20260507023842 8 288 0.0 1.6 0.00 0.00 0.00 95 1013.5
20260507023831 8 288 0.0 0.0 0.00 0.00 0.00 95 1013.4
20260507022634 7 313 0.0 0.0 0.00 0.00 0.00 95 1013.4
20260507021848 7 288 0.0 3.2 0.00 0.00 0.00 95 1013.4
20260507021045 7 288 1.6 4.8 0.00 0.00 0.00 95 1013.4
20260507020343 7 313 0.0 0.0 0.00 0.00 0.00 94 1013.2
20260507015835 7 313 0.0 0.0 0.00 0.00 0.00 95 1013.3
20260507015027 7 313 0.0 0.0 0.00 0.00 0.00 95 1013.3
20260507013931 7 313 0.0 0.0 0.00 0.00 0.00 95 1013.3
20260507012946 7 313 0.0 0.0 0.00 0.00 0.00 95 1013.3
20260507011933 7 313 0.0 0.0 0.00 0.00 0.00 94 1013.2
20260507011325 7 313 0.0 0.0 0.00 0.00 0.00 95 1013.2
20260507011220 7 313 0.0 0.0 0.00 0.00 0.00 94 1013.3
20260507011031 7 313 0.0 0.0 0.00 0.00 0.00 94 1013.2
20260507004837 7 313 0.0 0.0 0.00 0.00 0.00 94 1013.2
20260507004728 7 313 0.0 0.0 0.00 0.00 0.00 94 1013.3
20260506235828 7 313 0.0 0.0 0.00 0.00 0.00 94 1013.3
20260506235745 7 313 0.0 0.0 0.00 0.00 0.00 94 1013.2
20260506233827 8 313 0.0 0.0 0.00 0.00 0.00 94 1013.2
20260506233754 8 313 0.0 0.0 0.00 0.00 0.00 94 1013.1
20260506231843 8 313 0.0 0.0 0.00 0.00 0.00 93 1013.0
20260506231043 8 313 0.0 0.0 0.00 0.00 0.00 93 1012.9
20260506230845 8 313 0.0 0.0 0.00 0.00 0.00 93 1013.0
20260506224817 8 313 0.0 0.0 0.00 0.00 0.00 93 1012.9
20260506223811 8 313 0.0 0.0 0.00 0.00 0.00 92 1012.9
20260506222828 8 313 0.0 0.0 0.00 0.00 0.00 92 1012.8
20260506221821 8 313 0.0 1.6 0.00 0.00 0.00 92 1012.7
20260506220817 8 313 0.0 1.6 0.00 0.00 0.00 91 1012.7
20260506215820 9 313 0.0 1.6 0.00 0.00 0.00 91 1012.8
20260506214815 9 313 0.0 3.2 0.00 0.00 0.00 91 1012.7
20260506213809 9 313 0.0 4.8 0.00 0.00 0.00 91 1012.8
20260506212811 9 313 0.0 0.0 0.00 0.00 0.00 91 1012.6
20260506211816 9 313 0.0 0.0 0.00 0.00 0.00 91 1012.7
20260506210825 9 313 0.0 3.2 0.00 0.00 0.00 90 1012.6
20260506205848 10 313 1.6 4.8 0.00 0.00 0.00 89 1012.4
20260506205822 10 313 0.0 4.8 0.00 0.00 0.00 90 1012.5
20260506205741 10 313 1.6 4.8 0.00 0.00 0.00 88 1012.4
20260506202814 10 279 3.2 8.0 0.00 0.00 0.00 88 1012.4
20260506201812 10 277 1.6 6.4 0.00 0.00 0.00 87 1012.3
20260506200807 10 288 3.2 14.5 0.00 0.00 0.00 86 1012.1
20260506195820 11 323 8.0 20.9 0.00 0.00 0.00 85 1012.0
20260506194807 11 324 6.4 14.5 0.00 0.00 0.00 85 1012.0
20260506193808 11 338 8.0 14.5 0.00 0.00 0.00 84 1011.9
20260506192808 11 323 9.7 17.7 0.00 0.00 0.00 83 1011.8
20260506191817 11 323 8.0 17.7 0.00 0.00 0.00 82 1011.7
20260506190817 11 0 9.7 17.7 0.00 0.00 0.00 82 1011.6
20260506185831 11 355 8.0 17.7 0.00 0.00 0.00 81 1011.6
20260506184815 11 309 9.7 19.3 0.00 0.00 0.00 80 1011.6
20260506183812 12 355 8.0 20.9 0.00 0.00 0.00 79 1011.3
20260506182829 12 317 8.0 16.1 0.00 0.00 0.00 79 1011.4